Temperature
15 15 15 15 15 15 15 15 15 15 15 15 15 15 15 16 16 16 16 16 16 16 16 16 17 17 17 17 17 17 17 17 17 17 17 17 17 18 18 18 18 18 18
15 15 14 14 14 14 14 15 15 15 15 15 15 15 15 15 16 16 16 16 16 16 16 16 16 16 17 17 17 17 17 17 17 17 17 17 17 18 18 18 18 18 18
14 14 14 14 14 14 14 14 14 15 15 15 15 15 15 15 15 16 16 16 16 16 16 16 16 16 16 16 16 16 17 17 17 17 17 17 17 17 18 17 18 18 18
14 14 14 14 14 14 14 14 14 15 15 15 15 15 15 15 15 15 15 16 16 16 16 16 16 16 16 16 16 16 16 17 17 17 17 17 17 17 17 17 17 17 17
14 14 14 14 14 14 14 14 14 14 15 15 15 15 15 15 15 15 15 15 16 16 16 16 16 16 16 16 16 16 16 16 17 17 17 17 17 17 17 17 17 17 17
14 14 14 14 14 14 14 14 14 14 14 14 15 15 15 15 15 15 15 15 15 15 16 16 16 16 16 16 16 16 16 16 16 17 17 17 17 17 17 17 17 17 17
15 14 14 14 14 14 14 14 14 14 14 14 14 15 15 15 15 15 15 15 15 15 15 16 16 16 16 16 16 16 16 16 16 16 17 17 17 17 17 17 17 17 17
15 14 14 14 14 14 14 14 14 14 14 14 14 14 14 15 15 15 15 15 15 15 15 15 16 16 16 16 16 16 16 16 16 16 16 16 17 17 17 17 17 17 17
15 14 14 14 14 14 14 14 13 13 13 13 13 13 13 13 14 15 15 15 15 15 15 15 15 16 16 16 16 16 16 16 16 16 16 16 16 17 17 17 17 17 17
15 14 14 14 14 14 14 14 13 13 13 13 13 13 13 13 13 14 14 14 15 15 15 15 15 15 15 15 16 16 16 16 16 16 16 16 16 16 16 17 17 17 17
15 14 14 14 14 14 14 14 13 13 13 13 13 13 13 13 13 13 13 14 15 15 15 15 15 15 15 15 15 15 15 16 16 16 16 16 16 16 16 16 16 16 16
14 14 14 14 14 14 14 13 13 13 13 13 13 13 13 13 13 13 13 13 14 14 15 15 15 15 15 15 15 15 15 15 15 16 16 16 16 16 16 16 16 16 16
14 14 14 14 14 14 13 13 13 13 13 13 13 13 13 13 13 13 13 13 13 14 14 15 15 15 15 15 15 15 15 15 15 15 15 16 16 16 16 16 16 16 16
14 14 14 14 14 13 13 13 13 13 13 13 13 13 13 13 13 13 13 13 13 13 14 14 15 15 15 15 15 15 15 15 15 15 15 15 16 16 16 16 16 16 16
14 14 14 14 13 13 13 13 13 13 13 13 13 13 13 13 13 13 13 13 13 13 13 14 14 14 14 15 15 15 15 15 15 15 15 15 15 15 15 15 15 16 16
14 14 14 13 13 13 13 13 13 13 13 13 13 13 13 13 13 13 13 13 13 13 13 13 14 14 14 14 15 15 15 15 15 15 15 15 15 15 15 15 15 15 15
13 13 13 13 13 13 13 13 13 12 13 13 13 13 13 13 13 13 13 13 13 13 13 13 14 14 14 14 14 14 15 15 15 15 15 15 15 15 15 15 15 15 15
13 13 13 13 13 12 12 12 12 12 12 12 12 12 12 12 13 13 13 13 13 13 13 13 13 14 14 14 14 14 14 14 15 14 15 15 15 15 15 15 15 15 15
13 12 12 12 12 12 12 12 12 12 12 12 12 12 12 12 12 12 12 13 13 13 13 13 13 13 14 14 14 14 14 14 14 14 14 14 14 14 14 14 14 14 15
12 12 12 12 12 12 12 11 11 11 11 11 11 11 11 11 12 12 12 12 12 12 12 12 13 13 13 13 13 13 14 14 14 14 14 14 14 14 14 14 14 14 14
12 11 11 11 11 11 11 11 11 11 11 11 11 11 11 11 11 11 11 12 12 12 12 12 12 12 13 13 13 13 13 13 13 13 14 14 14 14 14 14 14 14 14
11 11 11 11 11 11 11 10 10 10 10 11 11 11 11 11 11 11 11 11 11 11 11 11 12 12 12 12 12 12 12 12 12 13 13 13 13 13 14 14 14 14 14
11 11 10 10 10 10 10 10 10 10 10 10 10 10 10 11 11 11 11 11 11 11 11 11 11 11 11 12 12 12 12 12 12 13 12 13 13 13 13 13 13 13 13
10 10 10 10 10 10 10 10 10 10 10 10 10 10 10 10 10 10 10 11 11 11 11 11 11 11 11 11 11 11 11 11 12 12 12 12 12 13 13 13 13 13 13
10 10 10 9 9 9 9 9 9 9 9 10 10 10 10 10 10 10 10 10 10 11 11 11 11 11 11 11 11 11 11 11 11 11 12 11 12 12 12 12 12 12 12
10 9 9 9 9 9 9 9 9 9 9 9 9 9 9 9 10 9 9 9 10 10 10 11 11 11 11 11 11 11 10 10 10 10 11 11 11 11 11 12 12 12 12
Wind_Speed
3 4 4 6 6 6 5 5 5 5 5 5 6 5 5 5 5 5 5 7 7 6 6 5 4 3 2 2 2 1 2 4 4 6 7 7 8 9 10 11 11 12 13
3 3 3 4 5 6 5 4 4 3 3 3 4 5 4 5 4 5 5 6 7 7 6 5 5 4 3 3 2 1 3 5 5 6 7 7 8 9 10 11 12 12 14
4 3 2 3 5 6 6 5 4 4 3 3 4 4 4 4 4 4 5 5 6 6 6 6 5 4 4 4 3 3 4 5 5 5 7 7 8 9 10 11 12 12 13
5 4 3 3 5 6 5 3 3 4 4 4 4 4 3 3 4 4 4 5 5 5 6 6 5 5 4 4 4 4 4 5 5 5 6 7 8 9 9 11 12 12 13
6 4 3 3 5 4 3 3 3 2 3 4 4 3 3 3 3 4 4 4 5 5 5 5 5 5 4 5 5 5 5 6 6 6 7 8 8 8 9 11 12 13 13
6 4 3 4 5 3 4 4 3 3 2 3 4 4 4 3 3 3 3 4 4 5 4 4 3 4 4 4 5 5 5 5 6 7 8 9 8 8 10 12 13 13 13
6 5 3 3 4 3 3 4 3 4 3 3 3 4 4 3 3 3 3 3 4 5 4 3 3 3 3 3 4 5 5 5 7 8 9 9 9 9 10 11 12 12 13
6 4 3 3 3 3 5 4 3 2 3 3 2 2 4 5 4 4 4 3 4 4 3 3 3 2 2 2 3 4 5 6 7 8 9 9 9 10 10 11 11 12 12
6 4 3 3 3 3 3 4 3 2 2 3 2 2 1 2 4 4 4 4 4 3 3 3 3 3 2 2 2 3 4 5 6 8 9 9 10 10 10 11 12 12 12
6 5 4 3 2 2 3 3 2 1 1 2 2 1 1 2 1 4 4 4 4 4 4 3 3 3 3 2 3 2 3 3 5 7 8 8 10 10 10 11 12 12 12
6 6 5 3 3 2 3 3 3 2 1 1 1 1 1 0 1 1 4 5 4 4 3 3 2 3 3 3 2 3 3 3 4 6 7 8 9 10 11 11 12 12 12
4 6 5 4 3 3 3 3 3 2 2 2 2 1 1 1 2 2 2 3 4 4 4 3 2 2 3 3 3 3 4 5 5 6 6 8 9 10 10 11 11 12 12
3 5 4 4 3 3 3 3 3 3 3 2 3 3 3 3 2 2 2 2 2 3 3 3 2 2 3 4 4 4 4 5 6 6 6 7 9 10 10 10 11 11 12
3 4 4 4 4 4 4 3 3 3 3 3 4 3 3 3 3 3 2 2 2 2 2 4 3 2 3 4 4 4 4 5 6 7 7 7 9 10 10 10 10 10 11
3 4 4 4 5 4 4 3 3 4 4 3 4 3 3 3 3 3 3 3 2 2 3 3 3 3 4 4 4 4 4 5 6 7 7 8 10 10 11 11 10 10 9
4 5 5 5 5 5 4 4 3 4 4 4 3 4 3 3 3 2 2 3 3 3 3 3 3 3 3 4 4 3 4 5 5 6 7 8 9 10 11 11 10 9 9
5 5 5 5 5 5 5 4 4 4 4 5 5 4 5 4 2 2 2 2 3 3 4 4 3 2 2 3 3 3 3 3 4 5 6 7 9 9 10 11 10 10 10
4 4 4 5 5 5 5 4 5 5 4 5 6 5 5 4 4 3 2 2 3 3 4 5 3 2 3 3 3 2 2 2 3 5 6 7 8 9 10 10 10 10 10
4 5 4 5 5 5 5 5 4 5 4 4 5 4 5 5 4 3 3 3 3 3 3 3 4 2 2 2 2 2 1 1 2 3 5 6 7 9 10 11 11 11 11
4 4 5 5 5 5 5 5 5 5 4 5 5 4 5 4 4 4 3 3 3 3 3 3 4 3 3 2 1 2 2 1 2 2 3 4 6 8 10 11 12 12 12
4 4 4 5 6 5 5 6 5 5 4 5 5 5 5 6 7 5 4 3 2 2 2 3 3 3 3 2 3 2 3 2 2 2 2 2 2 3 4 8 10 11 12
4 4 5 5 6 6 11 11 7 4 4 5 6 6 6 6 8 8 8 6 4 3 3 3 3 4 5 4 3 3 3 2 3 2 2 2 2 3 3 5 8 11 11
3 4 5 5 6 8 12 12 10 4 4 4 5 5 6 7 7 5 8 8 6 7 6 5 5 5 5 4 3 3 4 5 5 3 2 3 2 3 3 5 8 11 11
3 4 5 5 6 8 13 12 11 5 4 5 5 5 6 6 6 6 5 5 6 6 6 5 6 7 6 5 5 5 4 4 3 3 4 3 3 3 2 3 7 10 10
3 4 4 5 6 9 12 13 11 4 4 6 5 5 5 6 9 9 5 5 6 7 7 8 9 9 10 9 6 3 3 3 4 4 4 3 3 2 2 2 3 8 9
3 4 5 5 6 7 12 13 11 4 4 5 5 6 8 8 11 10 5 4 6 7 7 7 7 7 6 6 7 6 5 5 4 4 4 4 4 3 2 2 2 4 5
Wind_Direction
27 16 15 15 9 6 2 357 358 359 3 358 359 359 352 346 336 328 322 324 320 311 304 293 280 274 280 281 277 256 201 184 171 158 155 154 150 144 147 150 149 151 151
43 27 14 8 2 360 357 356 351 351 349 349 350 349 344 344 339 332 326 328 325 319 309 295 288 277 277 282 274 244 194 179 181 171 164 160 156 154 154 153 150 152 154
41 36 19 1 353 359 5 7 0 1 358 357 350 342 341 339 337 331 329 325 323 325 321 303 290 284 277 273 257 233 208 193 191 183 172 166 164 161 161 159 156 155 154
36 35 26 0 352 2 9 2 3 359 356 354 343 336 338 335 333 328 327 324 322 320 320 315 295 284 275 264 253 239 220 202 201 192 180 173 169 167 166 166 161 159 155
29 33 23 360 360 7 5 1 11 1 347 344 333 334 336 334 330 336 332 324 319 313 311 311 309 295 275 264 256 244 230 215 208 196 184 177 171 171 170 169 163 159 155
15 21 16 6 10 11 2 1 354 354 338 331 336 342 332 334 340 347 337 336 327 318 313 308 307 305 290 268 259 248 236 222 217 200 186 180 178 169 163 163 160 158 157
9 13 7 0 7 8 353 352 354 355 351 346 2 346 338 345 2 357 348 344 341 335 330 316 304 297 298 293 278 255 243 235 230 205 191 185 180 174 165 163 162 163 163
360 5 4 349 351 355 357 2 10 359 352 11 31 18 352 345 345 353 351 352 341 339 338 330 317 300 290 284 285 268 250 241 221 200 188 186 183 180 178 174 172 172 171
345 347 348 346 348 357 343 341 353 14 346 349 35 86 59 315 315 327 342 348 344 340 331 332 331 319 294 278 271 266 255 235 205 192 188 191 190 186 185 182 180 179 179
348 345 340 341 341 341 333 328 352 333 352 332 337 3 194 205 289 325 327 333 337 333 327 332 333 327 315 289 263 250 241 233 207 195 194 195 194 192 189 189 188 186 185
347 348 344 341 330 322 319 327 336 331 282 263 286 301 322 311 214 224 307 323 333 321 318 313 311 315 311 290 264 249 226 223 221 207 199 201 203 200 196 197 196 195 193
336 345 346 342 325 315 311 312 313 313 289 267 261 244 228 240 239 211 259 300 313 308 316 314 307 309 309 294 273 259 230 222 224 222 207 204 208 208 204 205 205 202 202
332 333 344 335 325 319 314 310 315 310 299 282 265 254 241 237 219 201 227 271 294 302 316 317 301 308 303 299 287 278 248 232 224 222 219 216 205 205 206 210 212 209 209
308 320 337 335 329 332 333 325 319 311 309 298 290 274 261 255 227 208 207 220 302 316 316 298 309 305 309 301 291 280 267 245 230 221 214 218 208 202 200 206 214 214 214
330 337 344 342 339 339 336 332 330 321 322 310 304 296 278 270 253 232 216 202 207 282 297 287 295 306 315 302 295 277 264 259 243 228 217 211 202 203 203 208 217 216 212
343 346 348 346 345 345 344 343 333 326 335 323 313 314 305 286 280 256 232 223 211 216 254 270 268 289 304 308 298 276 261 257 251 238 225 211 204 206 207 209 212 215 217
352 352 347 348 346 346 346 349 340 337 336 330 330 322 313 306 293 281 253 234 227 215 247 275 263 283 289 294 312 304 270 250 246 235 225 212 205 204 204 205 205 207 214
349 348 349 353 349 347 344 342 338 340 335 330 327 326 318 324 312 294 273 255 244 227 235 271 282 285 277 279 282 287 283 252 240 233 220 213 208 205 203 202 202 206 212
352 352 355 349 342 338 335 332 328 327 322 319 320 318 315 319 313 304 289 276 265 259 234 251 276 278 279 279 288 285 274 274 244 232 221 218 214 210 207 205 206 208 212
354 351 346 338 334 331 327 327 325 327 321 319 318 315 307 297 293 299 295 287 280 273 259 254 269 275 268 273 250 260 277 266 260 247 226 217 214 214 211 205 203 205 209
353 344 344 339 335 330 332 331 325 328 323 323 323 321 310 309 308 305 300 290 289 283 280 269 272 277 269 260 252 246 251 260 264 231 211 216 200 206 209 206 203 202 202
347 350 348 338 336 337 336 338 335 327 321 319 317 317 314 313 318 317 309 300 283 275 271 263 270 271 267 255 253 241 236 240 257 213 188 232 197 214 215 205 200 197 197
345 346 341 340 332 326 336 342 340 331 310 304 303 310 320 324 327 314 313 314 299 287 271 259 255 257 257 250 241 250 240 233 240 217 186 239 213 225 221 209 201 197 195
326 326 327 328 326 330 342 343 343 341 315 304 299 296 298 303 309 313 312 312 301 294 280 266 251 255 256 246 232 239 243 260 260 229 191 223 215 219 218 205 201 195 191
313 313 312 318 321 322 336 342 343 328 322 314 305 302 302 295 307 316 307 297 301 301 300 290 282 278 274 263 246 230 228 232 251 241 202 204 204 204 211 223 196 188 186
293 308 315 312 312 312 327 336 337 324 319 316 312 309 313 314 314 318 297 280 289 294 300 304 300 292 276 259 247 226 220 226 243 246 207 193 196 184 204 213 192 179 179
Height
1542 1541 1540 1538 1537 1536 1534 1533 1532 1532 1531 1530 1530 1529 1529 1528 1528 1528 1528 1528 1528 1528 1528 1528 1528 1528 1528 1528 1527 1525 1524 1525 1527 1529 1530 1531 1532 1533 1535 1538 1541 1544 1547
1542 1541 1540 1538 1537 1535 1534 1533 1532 1531 1530 1529 1529 1528 1528 1528 1527 1527 1527 1527 1527 1527 1527 1527 1527 1527 1527 1527 1526 1525 1523 1525 1528 1530 1531 1532 1533 1535 1537 1539 1542 1544 1547
1543 1541 1540 1538 1537 1535 1534 1533 1531 1530 1529 1528 1528 1527 1527 1527 1526 1526 1526 1526 1526 1526 1526 1526 1526 1526 1527 1527 1527 1526 1526 1527 1529 1530 1531 1532 1533 1535 1537 1539 1542 1545 1548
1543 1541 1540 1538 1537 1535 1534 1532 1531 1529 1529 1527 1526 1526 1525 1525 1525 1525 1525 1525 1525 1525 1525 1525 1525 1526 1526 1526 1526 1527 1527 1528 1529 1530 1531 1532 1533 1533 1535 1537 1541 1544 1548
1544 1542 1540 1538 1537 1535 1533 1532 1530 1529 1528 1527 1525 1525 1524 1524 1524 1524 1524 1524 1524 1524 1524 1524 1525 1525 1525 1525 1526 1526 1527 1527 1528 1529 1531 1532 1532 1532 1531 1532 1537 1543 1547
1544 1542 1541 1539 1537 1535 1534 1532 1530 1529 1527 1526 1525 1524 1523 1523 1523 1523 1523 1523 1523 1523 1523 1523 1523 1524 1524 1524 1525 1525 1526 1526 1527 1529 1530 1531 1532 1531 1529 1531 1536 1542 1547
1545 1543 1541 1540 1538 1536 1534 1532 1530 1529 1527 1526 1524 1523 1523 1522 1522 1522 1522 1522 1522 1522 1522 1522 1522 1522 1523 1523 1524 1524 1524 1524 1524 1526 1528 1531 1532 1533 1533 1535 1539 1543 1547
1545 1543 1542 1540 1538 1536 1534 1533 1531 1529 1528 1526 1525 1523 1523 1523 1522 1521 1521 1521 1520 1520 1520 1520 1521 1521 1521 1522 1522 1522 1522 1520 1520 1523 1527 1530 1532 1534 1536 1538 1541 1544 1548
1545 1544 1542 1540 1538 1536 1535 1533 1531 1530 1528 1527 1526 1525 1524 1523 1522 1521 1520 1520 1520 1519 1519 1519 1519 1519 1520 1520 1521 1521 1521 1520 1519 1522 1526 1529 1532 1534 1537 1539 1542 1545 1548
1545 1543 1542 1540 1538 1537 1535 1533 1532 1530 1529 1527 1526 1526 1525 1524 1523 1521 1520 1520 1519 1518 1518 1518 1518 1518 1518 1519 1520 1520 1520 1520 1521 1523 1526 1529 1531 1534 1536 1539 1542 1544 1547
1545 1543 1542 1540 1538 1537 1535 1533 1532 1530 1529 1528 1526 1525 1525 1524 1523 1522 1519 1518 1518 1518 1517 1517 1517 1517 1517 1518 1519 1519 1520 1520 1522 1523 1525 1528 1530 1533 1535 1538 1541 1543 1546
1544 1542 1541 1539 1538 1536 1535 1533 1531 1530 1529 1527 1526 1525 1524 1523 1522 1521 1519 1518 1517 1516 1516 1516 1516 1516 1516 1517 1517 1518 1519 1520 1521 1523 1524 1526 1529 1531 1534 1536 1539 1541 1544
1543 1541 1540 1538 1537 1535 1534 1532 1531 1529 1528 1526 1525 1524 1523 1522 1521 1520 1519 1517 1516 1515 1515 1515 1515 1515 1515 1515 1516 1517 1518 1519 1520 1521 1523 1525 1527 1529 1531 1534 1537 1539 1542
1542 1540 1539 1537 1536 1534 1533 1531 1529 1528 1526 1525 1524 1522 1521 1520 1520 1519 1518 1517 1515 1514 1513 1514 1514 1514 1514 1514 1515 1515 1516 1517 1519 1520 1521 1522 1524 1527 1529 1531 1534 1536 1539
1541 1539 1538 1536 1534 1533 1531 1529 1528 1526 1524 1523 1522 1520 1519 1518 1518 1517 1517 1516 1516 1513 1512 1512 1512 1512 1512 1513 1513 1513 1514 1515 1516 1518 1519 1520 1522 1524 1526 1529 1531 1533 1536
1540 1538 1536 1534 1533 1531 1529 1528 1526 1524 1522 1521 1520 1518 1517 1516 1515 1515 1515 1514 1514 1513 1511 1510 1510 1510 1510 1510 1511 1511 1512 1513 1514 1515 1516 1518 1519 1521 1523 1525 1528 1530 1532
1538 1536 1534 1533 1531 1529 1527 1525 1523 1522 1520 1518 1517 1516 1515 1514 1513 1512 1512 1511 1511 1510 1509 1508 1508 1508 1508 1508 1508 1508 1509 1510 1511 1512 1513 1515 1516 1518 1520 1522 1524 1526 1528
1537 1535 1533 1531 1529 1527 1525 1523 1521 1519 1517 1516 1514 1513 1512 1511 1510 1510 1509 1508 1508 1507 1507 1505 1505 1505 1505 1505 1505 1506 1506 1507 1508 1509 1510 1512 1513 1514 1516 1518 1520 1522 1524
1535 1533 1531 1529 1527 1525 1523 1521 1519 1517 1515 1513 1511 1510 1509 1508 1507 1507 1506 1505 1505 1504 1503 1502 1502 1502 1502 1502 1502 1502 1503 1503 1504 1506 1507 1508 1509 1511 1512 1514 1516 1518 1520
1534 1532 1529 1527 1525 1523 1521 1519 1517 1515 1513 1511 1509 1508 1507 1506 1505 1504 1503 1502 1501 1501 1500 1499 1498 1498 1498 1499 1499 1499 1499 1500 1501 1502 1503 1504 1505 1507 1508 1510 1512 1514 1516
1532 1529 1527 1525 1523 1521 1518 1516 1514 1512 1510 1508 1507 1506 1504 1503 1502 1501 1500 1499 1498 1497 1496 1496 1495 1495 1494 1495 1495 1495 1495 1496 1496 1498 1499 1500 1501 1502 1504 1506 1508 1510 1512
1529 1527 1525 1522 1520 1518 1516 1514 1512 1509 1507 1506 1504 1503 1502 1501 1499 1498 1497 1496 1496 1494 1493 1492 1491 1491 1491 1491 1491 1491 1491 1491 1492 1494 1495 1495 1497 1498 1499 1501 1503 1505 1507
1527 1524 1522 1520 1517 1515 1513 1511 1509 1507 1505 1503 1502 1500 1499 1497 1496 1495 1493 1493 1492 1491 1490 1489 1488 1487 1487 1487 1487 1487 1487 1487 1487 1489 1490 1490 1492 1493 1495 1497 1499 1500 1502
1524 1522 1519 1517 1515 1512 1510 1508 1506 1504 1502 1500 1499 1497 1495 1494 1492 1490 1489 1488 1487 1487 1486 1485 1484 1483 1483 1483 1483 1482 1482 1481 1482 1483 1485 1485 1487 1488 1490 1492 1494 1495 1497
1521 1519 1517 1514 1512 1509 1507 1505 1502 1500 1498 1497 1495 1494 1492 1490 1489 1487 1485 1483 1482 1481 1481 1480 1479 1478 1478 1478 1478 1477 1477 1477 1476 1477 1479 1480 1481 1483 1485 1486 1489 1490 1492
1519 1516 1514 1512 1509 1506 1504 1502 1499 1497 1495 1493 1492 1490 1488 1486 1485 1483 1481 1479 1477 1476 1475 1474 1473 1473 1472 1472 1472 1472 1471 1471 1471 1471 1473 1475 1476 1478 1480 1481 1483 1486 1488